Bellefonte, PA

1:19 AM EST on December 09, 2016 (GMT -0500)
University Park

Weather History for KUNV - April, 2014

Change the Weather History Date:

Saturday, April 5, 2014

  Actual Average Record
Temperature  
Mean Temperature 42 °F -  
Max Temperature 47 °F 52 °F 80 °F (1928)
Min Temperature 36 °F 34 °F 19 °F (1964)
Degree Days  
Heating Degree Days 24    
Moisture  
Dew Point 27 °F    
Average Humidity 60    
Maximum Humidity 90    
Minimum Humidity 45    
Precipitation  
Precipitation 0.00 in - - ()
Sea Level Pressure  
Sea Level Pressure 29.93 in    
Wind  
Wind Speed 13 mph (West)    
Max Wind Speed 23 mph    
Max Gust Speed 33 mph    
Visibility 10 miles    
Events      
Averages and records for this station are not official NWS values.
T = Trace of Precipitation, MM = Missing Value Source: NWS Daily Summary

Daily Weather History Graph

Daily Weather History Graph

Search for Another Location

Airport or City:

Trip Planner

Search our weather history database for the weather conditions in past years. The results will help you decide how hot, cold, wet, or windy it might be!

Date:

Astronomy

Apr. 05, 2014 Rise Set
Actual Time 6:48 AM EDT 7:40 PM EDT
Civil Twilight 6:20 AM EDT 8:08 PM EDT
Nautical Twilight 5:47 AM EDT 8:41 PM EDT
Astronomical Twilight 5:13 AM EDT 9:15 PM EDT
Moon 10:52 AM EDT (4/5) 12:50 AM EDT (4/5)
Length of Visible Light 13h 47m
Length of Day
12h 52m
Waxing Crescent, 34% of the Moon is Illuminated
Apr 5
Waxing Crescent
Apr 7
First Quarter
Apr 15
Full
Apr 22
Last Quarter
Apr 29
New

Hourly Weather History & Observations

Time (EDT) Temp. Windchill Dew Point Humidity Pressure Visibility Wind Dir Wind Speed Gust Speed Precip Events Conditions
12:15 AM 44.6 °F 42.2 °F 41.9 °F 90% 29.72 in 5.0 mi West 4.6 mph - N/A   Mostly Cloudy
12:35 AM 44.6 °F 40.7 °F 41.9 °F 90% 29.72 in 5.0 mi WSW 6.9 mph - N/A   Mostly Cloudy
12:55 AM 46.0 °F 41.9 °F 43.2 °F 90% 29.73 in 7.0 mi SW 8.1 mph - N/A   Mostly Cloudy
1:15 AM 47.8 °F - 37.8 °F 68% 29.73 in 10.0 mi WSW 23.0 mph 29.9 mph N/A   Mostly Cloudy
1:35 AM 46.4 °F 39.0 °F 34.0 °F 62% 29.74 in 10.0 mi WSW 19.6 mph 28.8 mph N/A   Scattered Clouds
1:55 AM 44.8 °F 36.6 °F 33.1 °F 64% 29.75 in 10.0 mi WSW 20.7 mph 26.5 mph N/A   Clear
2:15 AM 44.6 °F 37.2 °F 32.4 °F 62% 29.76 in 10.0 mi WSW 17.3 mph 21.9 mph N/A   Clear
2:35 AM 44.6 °F 37.4 °F 32.7 °F 63% 29.76 in 10.0 mi WSW 16.1 mph 20.7 mph N/A   Mostly Cloudy
2:55 AM 44.2 °F 38.0 °F 32.5 °F 63% 29.76 in 10.0 mi WSW 12.7 mph - N/A   Mostly Cloudy
3:15 AM 44.6 °F 39.7 °F 32.7 °F 63% 29.76 in 10.0 mi West 9.2 mph - N/A   Overcast
3:35 AM 44.6 °F 36.1 °F 32.5 °F 63% 29.76 in 10.0 mi West 21.9 mph 28.8 mph N/A   Overcast
3:55 AM 43.5 °F 35.2 °F 32.2 °F 64% 29.77 in 10.0 mi West 19.6 mph 24.2 mph N/A   Overcast
4:15 AM 42.6 °F 34.3 °F 32.0 °F 66% 29.78 in 10.0 mi West 18.4 mph 25.3 mph N/A   Overcast
4:35 AM 41.9 °F 32.6 °F 30.0 °F 63% 29.79 in 10.0 mi West 21.9 mph 29.9 mph N/A   Overcast
4:55 AM 41.0 °F 33.1 °F 29.1 °F 63% 29.80 in 10.0 mi WSW 15.0 mph 26.5 mph N/A   Overcast
5:15 AM 40.5 °F 31.5 °F 30.0 °F 66% 29.80 in 10.0 mi WSW 18.4 mph 25.3 mph N/A   Overcast
5:35 AM 40.1 °F 30.2 °F 29.8 °F 67% 29.81 in 10.0 mi WSW 21.9 mph 29.9 mph N/A   Overcast
5:53 AM 39.2 °F 31.2 °F 30.2 °F 70% 29.81 in 10.0 mi WSW 13.8 mph 24.2 mph N/A   Overcast
6:53 AM 39.2 °F 30.2 °F 28.4 °F 65% 29.84 in 10.0 mi WSW 17.3 mph 29.9 mph N/A   Overcast
7:53 AM 39.2 °F 29.0 °F 24.8 °F 56% 29.86 in 10.0 mi West 21.9 mph 33.4 mph N/A   Overcast
8:53 AM 39.2 °F 30.8 °F 24.8 °F 56% 29.89 in 10.0 mi West 15.0 mph 23.0 mph N/A   Overcast
9:53 AM 39.2 °F 30.8 °F 24.8 °F 56% 29.99 in 10.0 mi West 15.0 mph 23.0 mph N/A   Overcast
10:53 AM 39.2 °F 30.5 °F 24.8 °F 56% 29.99 in 10.0 mi West 16.1 mph - N/A   Overcast
10:54 AM 39.2 °F 30.5 °F 24.8 °F 56% 29.93 in 10.0 mi West 16.1 mph - N/A   Overcast
11:53 AM 39.2 °F 31.2 °F 26.6 °F 61% 29.95 in 10.0 mi West 13.8 mph 25.3 mph N/A   Overcast
12:53 PM 39.2 °F 29.8 °F 24.8 °F 56% 29.98 in 10.0 mi WNW 18.4 mph - N/A   Overcast
1:53 PM 39.2 °F 30.2 °F 24.8 °F 56% 30.00 in 10.0 mi West 17.3 mph 28.8 mph N/A   Overcast
2:53 PM 41.0 °F 34.3 °F 23.0 °F 49% 30.00 in 10.0 mi West 11.5 mph - N/A   Overcast
3:50 PM 39.2 °F 30.2 °F 23.0 °F 52% 30.02 in 10.0 mi WNW 17.3 mph - N/A   Overcast
5:53 PM 41.0 °F 33.5 °F 21.2 °F 45% 30.07 in 10.0 mi WNW 13.8 mph 18.4 mph N/A   Mostly Cloudy
6:53 PM 41.0 °F 32.8 °F 21.2 °F 45% 30.08 in 10.0 mi WNW 16.1 mph - N/A   Mostly Cloudy
7:53 PM 39.2 °F 33.0 °F 21.2 °F 49% 30.09 in 10.0 mi West 9.2 mph - N/A   Mostly Cloudy
8:53 PM 37.4 °F 32.8 °F 19.4 °F 48% 30.12 in 10.0 mi West 5.8 mph - N/A   Clear
9:15 PM 36.5 °F 30.3 °F 21.0 °F 54% 30.13 in 10.0 mi West 8.1 mph - N/A   Clear
9:35 PM 36.7 °F 31.2 °F 20.8 °F 53% 30.13 in 10.0 mi West 6.9 mph - N/A   Clear
9:55 PM 36.7 °F 29.9 °F 20.8 °F 53% 30.13 in 10.0 mi West 9.2 mph - N/A   Clear
10:15 PM 37.0 °F 28.9 °F 20.3 °F 51% 30.14 in 10.0 mi West 12.7 mph 16.1 mph N/A   Clear
10:35 PM 36.7 °F 29.4 °F 20.5 °F 52% 30.15 in 10.0 mi West 10.4 mph - N/A   Clear
10:55 PM 36.7 °F 29.9 °F 20.1 °F 51% 30.15 in 10.0 mi WNW 9.2 mph - N/A   Clear
11:15 PM 36.3 °F 32.5 °F 20.1 °F 52% 30.16 in 10.0 mi WNW 4.6 mph - N/A   Clear
11:35 PM 36.5 °F 32.7 °F 20.1 °F 52% 30.16 in 10.0 mi NW 4.6 mph - N/A   Clear
11:55 PM 36.0 °F 30.3 °F 19.8 °F 52% 30.17 in 10.0 mi WNW 6.9 mph - N/A   Clear